#timestamp,LO_Frequency,Hit,StdDev 
1594987215.5,286046999.6,N
1594987235.4,286046996.6,N
1594987255.2,286046996.8,N
1594987275.1,286046997.0,N
1594987276.0,286046997.0,N
1594987295.8,286046997.0,N
1594987315.6,286046999.6,N
1594987335.5,286046998.8,N
1594987355.3,286046999.4,N
1594987375.2,286046999.0,N
1594987395.9,286046998.7,N
1594987415.7,286046998.3,N
1594987435.6,286046998.2,N
1594987455.4,286047001.0,N
1594987475.3,286047000.9,N
1594987495.1,286046998.3,N
1594987496.0,286046998.3,N
1594987515.8,286046998.4,N
1594987535.7,286047001.1,N
1594987555.5,286047001.0,N
1594987575.3,286047000.7,N
1594987595.2,286047000.6,N
1594987615.0,286046999.9,N
1594987615.9,286046999.9,N
1594987635.8,286046999.8,N
1594987655.6,286046999.9,N
1594987675.4,286046999.9,N
1594987695.3,286046999.8,N
1594987715.1,286047002.3,N
1594987735.9,286046999.7,N
1594987755.7,286047002.5,N
1594987775.5,286047002.3,N
1594987795.4,286047002.2,N
1594987815.2,286047002.8,N
1594987835.0,286047002.3,N
1594987835.9,286047002.3,N
1594987855.8,286047001.6,N
1594987875.6,286047004.4,Y
1594987895.5,286047001.3,P
1594987915.3,286047001.3,N
1594987935.1,286047001.6,P
1594987955.9,286047001.9,Y
1594987975.7,286047000.3,P
1594987995.6,286047000.2,N
1594988015.4,286046999.7,N
1594988035.2,286047000.6,N
1594988055.1,286047000.8,N
1594988056.0,286047000.8,N
1594988075.8,286047000.7,N
1594988095.6,286047001.2,N
1594988115.5,286047000.8,N
1594988135.3,286047000.4,N
1594988155.2,286047001.0,N
1594988175.9,286047000.6,N
1594988195.7,286047000.9,N
1594988215.6,286047000.5,N
1594988235.4,286047000.7,N
1594988255.3,286047000.2,N
1594988275.1,286047000.2,N
1594988276.0,286047000.2,N
1594988295.8,286046998.2,Y
1594988315.7,286047001.2,P
1594988335.5,286047000.3,N
1594988355.3,286047002.5,P
1594988375.2,286047001.9,N
1594988395.0,286047000.8,N
1594988395.9,286047000.8,N
1594988415.8,286047000.2,N
1594988435.6,286047000.3,N
1594988455.4,286047000.4,N
1594988475.3,286046999.8,N
1594988495.1,286047000.3,N
1594988515.9,286047000.4,N
1594988535.7,286047002.8,Y
1594988555.5,286047000.8,P
1594988575.4,286047000.6,P
1594988595.2,286046998.4,P
1594988615.0,286046998.2,N
1594988616.0,286046998.2,N
1594988635.8,286046998.5,N
1594988655.6,286046998.6,N
1594988675.5,286046999.1,N
1594988695.3,286046998.3,N
1594988715.1,286046996.5,Y
1594988735.9,286046998.7,P
1594988755.7,286047001.1,P
1594988775.6,286047001.2,N
1594988795.4,286046998.1,N
1594988815.2,286046998.4,N
1594988835.1,286047000.8,N
1594988836.0,286047000.8,N
1594988855.8,286047001.1,N
1594988875.7,286046998.5,N
1594988895.5,286047001.0,N
1594988915.3,286047000.3,N
1594988935.2,286046999.9,N
1594988955.9,286047000.0,N
1594988975.8,286047000.9,N
1594988995.6,286047000.1,N
1594989015.4,286047000.0,N
1594989035.3,286047000.3,N
1594989055.1,286047001.7,N
1594989075.8,286047002.2,N
1594989095.7,286047002.0,N
1594989115.5,286047002.1,N
1594989135.4,286047000.3,N
1594989155.2,286047000.6,N
1594989175.0,286047000.7,N
1594989175.9,286047000.7,N
1594989195.8,286047000.5,N
1594989215.6,286047002.6,N
1594989235.4,286047002.3,N
1594989255.3,286047002.0,N
1594989275.1,286047002.1,N
1594989295.9,286047002.5,N
1594989315.7,286047002.7,N
1594989335.5,286046999.7,N
1594989355.4,286047000.5,N
1594989375.2,286047000.8,N
1594989395.0,286047001.1,N
1594989396.0,286047001.1,N
1594989415.8,286047000.6,N
1594989435.6,286046998.5,N
1594989455.5,286046998.4,N
1594989475.3,286047000.7,N
1594989495.1,286047000.5,N
1594989515.9,286047000.0,N
1594989535.7,286047000.1,N
1594989555.6,286046999.7,N
1594989575.4,286047002.7,N
1594989595.2,286047002.6,N
1594989615.1,286047002.3,N
1594989616.0,286047002.3,N
1594989635.8,286046999.7,N
1594989655.6,286046999.7,N
1594989675.5,286047002.3,N
1594989695.3,286047002.8,N
1594989715.2,286047003.2,N
1594989735.9,286047004.2,Y
1594989755.7,286047002.2,P
1594989775.6,286047002.8,P
1594989795.4,286047001.3,N
1594989815.3,286047001.3,N
1594989835.1,286047003.5,Y
1594989836.0,286047003.5,P
1594989855.8,286046999.9,N
1594989875.7,286047000.8,N
1594989895.5,286046999.8,N
1594989915.4,286047002.6,N
1594989935.2,286047006.0,Y
1594989955.0,286047003.7,P
1594989955.9,286047003.7,P
1594989975.8,286047004.0,P
1594989995.6,286047003.7,Y
1594990015.5,286046998.6,P
1594990035.3,286046997.2,N
1594990055.1,286046995.4,N
1594990075.9,286046997.3,N
1594990095.7,286046996.8,N
1594990115.5,286046999.0,N
1594990135.4,286046999.3,N
1594990155.2,286046997.0,N
1594990175.1,286046996.5,N
1594990176.0,286046996.5,N
1594990195.8,286046999.8,N
1594990215.6,286047002.3,N
1594990235.5,286046999.3,N
1594990255.3,286046998.8,N
1594990275.2,286046995.4,N
1594990295.9,286046995.0,N
1594990315.7,286046997.3,N
1594990335.6,286046997.5,N
1594990355.4,286046996.5,N
1594990375.3,286046999.2,N
1594990395.1,286046998.3,N
1594990396.0,286046998.3,N
1594990415.8,286046997.4,N
1594990435.7,286046997.2,N
1594990455.5,286046997.8,N
1594990475.3,286046995.0,N
1594990495.2,286046997.2,N
1594990515.0,286046995.3,N
1594990515.9,286046995.3,N
1594990535.8,286046995.5,N
1594990555.6,286046997.1,N
1594990575.4,286046996.9,N
1594990595.3,286046997.7,N
1594990615.1,286046996.1,N
1594990635.9,286046996.1,N
1594990655.7,286046996.3,N
1594990675.5,286046996.2,N
1594990695.4,286046995.7,N
1594990715.2,286046993.4,Y
1594990735.1,286046997.4,P
1594990736.0,286046997.4,P
1594990755.8,286046997.4,P
1594990775.6,286046995.0,Y
1594990795.5,286046999.1,P
